Temperature
5 6 6 6 6 7 7 7 7 6 6 7 7 8 8 9 9 9 9 9 9 9 9 9 8 8 8 8 7 7 6 6 5 5 4 4 3 3
5 5 6 6 6 6 7 7 7 7 6 7 7 8 8 8 8 9 9 9 9 9 8 8 8 8 8 7 7 6 6 5 5 4 4 3 3 2
5 5 5 6 6 6 6 6 7 7 7 7 7 7 7 8 8 8 8 8 8 8 8 8 8 8 7 7 6 6 5 5 4 4 3 3 2 2
5 5 5 5 6 6 6 6 6 7 7 7 7 7 7 7 7 8 8 8 8 8 8 8 7 7 7 7 6 6 5 5 4 3 3 2 2 2
4 5 5 5 5 6 6 6 6 6 7 7 6 6 7 7 7 7 7 7 8 8 8 7 7 7 6 6 6 5 5 4 3 3 3 2 2 1
4 4 5 5 5 5 6 6 6 6 6 6 6 6 6 6 7 7 7 7 7 7 7 7 7 6 6 5 5 5 4 4 3 3 2 2 1 1
4 4 5 5 5 5 5 6 6 6 6 6 6 6 6 6 6 7 7 7 7 7 7 6 6 6 6 5 5 4 4 3 3 2 2 1 1 0
4 4 4 4 5 5 5 6 6 6 6 6 6 6 6 6 6 6 6 6 6 6 6 6 6 5 5 5 4 4 3 3 2 2 1 1 1 0
4 4 4 4 4 4 5 5 5 6 6 7 6 6 6 7 6 6 6 6 6 6 6 5 5 5 5 4 4 3 2 2 2 1 1 1 0 -0
4 4 4 4 4 4 4 5 5 5 6 6 6 7 7 6 6 6 6 6 5 5 5 5 5 4 4 4 3 3 2 2 1 1 0 0 -0 -0
4 4 4 4 4 4 4 4 5 5 5 5 6 6 6 6 6 6 5 5 5 5 5 4 4 4 3 3 2 2 2 1 1 0 0 -0 -1 -1
3 4 4 4 4 4 4 4 4 5 5 5 5 5 5 5 5 6 6 5 5 4 4 4 4 3 3 2 2 1 1 1 0 0 -0 -1 -1 -1
3 3 4 4 4 4 4 4 5 5 5 5 5 5 5 5 5 5 5 5 5 5 4 4 3 3 3 2 2 1 1 0 0 -0 -1 -1 -1 -2
3 3 3 3 4 4 4 4 4 4 4 4 4 4 4 4 4 5 5 4 4 5 4 4 3 3 3 2 1 0 0 -0 -0 -1 -1 -2 -2 -2
2 2 3 3 3 3 4 4 4 4 4 4 4 4 4 4 4 4 4 4 4 3 3 3 3 3 2 2 1 0 -0 -1 -1 -1 -2 -2 -2 -3
2 2 3 3 3 3 3 3 3 4 4 4 4 4 4 4 4 4 4 3 3 3 2 2 2 2 2 1 1 0 -0 -1 -1 -2 -2 -2 -3 -3
2 2 2 2 2 3 3 3 3 3 3 4 4 3 3 3 3 3 3 3 3 2 2 2 1 1 1 1 0 -0 -1 -1 -2 -2 -2 -2 -3 -4
2 2 2 2 2 2 2 3 3 3 3 3 3 3 3 3 3 2 2 2 2 2 2 1 1 1 -0 -1 -1 -1 -1 -2 -2 -2 -3 -3 -3 -4
2 2 2 2 2 2 2 2 2 3 3 3 3 3 3 2 2 2 2 2 2 2 1 1 1 1 0 -1 -2 -2 -2 -2 -2 -3 -3 -3 -4 -4
2 2 2 2 2 2 2 2 2 2 3 3 3 2 2 2 2 2 2 2 2 1 1 0 0 0 0 -0 -2 -2 -2 -2 -2 -3 -3 -4 -4 -4
1 2 2 2 2 2 2 2 2 2 2 2 2 2 2 2 2 2 2 1 1 1 1 0 -0 -1 -1 -1 -1 -2 -3 -3 -3 -3 -3 -4 -4 -4
1 1 1 2 2 2 2 2 2 2 2 2 2 2 2 2 2 2 1 1 1 1 0 -0 -1 -1 -1 -1 -2 -2 -3 -3 -4 -4 -4 -4 -4 -5
1 1 1 1 2 2 2 2 2 2 2 2 2 2 2 2 1 1 1 1 0 0 -0 -1 -1 -1 -2 -2 -2 -3 -3 -4 -4 -4 -4 -5 -5 -5
Wind_Speed
10 10 9 8 7 7 7 7 7 6 6 5 4 5 7 9 13 13 12 16 16 15 14 14 14 13 12 10 9 7 6 4 4 4 5 7 8 9
9 10 10 8 7 7 7 7 6 6 6 5 4 4 6 7 12 12 13 16 16 16 15 14 14 13 12 11 9 7 6 5 4 4 5 6 7 9
11 11 11 10 8 8 7 7 7 6 7 5 4 4 6 7 8 9 11 11 12 15 15 14 14 13 12 11 9 8 6 5 4 4 5 6 6 7
12 12 12 10 10 9 8 9 8 7 7 8 5 5 6 7 7 7 7 8 9 12 14 13 13 13 12 11 10 8 6 5 3 3 3 4 5 7
13 13 12 12 11 10 10 9 7 7 7 8 7 5 4 5 6 5 6 5 7 10 11 12 13 13 12 11 10 8 7 5 4 2 2 3 5 7
12 12 12 13 12 11 10 10 9 8 8 8 7 6 5 5 6 6 5 4 4 6 7 8 10 11 11 11 10 9 7 6 4 3 2 2 4 6
12 11 11 12 14 12 11 10 10 9 8 8 8 6 6 7 7 5 5 4 3 3 4 4 6 6 7 9 9 9 7 6 5 3 2 1 3 5
11 10 10 11 12 13 14 15 14 12 11 9 8 10 9 7 6 7 6 5 3 4 4 3 4 4 5 6 8 9 8 6 5 3 2 1 3 5
10 9 9 9 10 8 9 10 11 14 14 11 11 11 10 9 9 8 8 6 4 6 5 3 3 3 4 5 9 9 8 6 5 3 1 1 3 5
9 10 9 9 9 8 7 7 7 7 9 9 9 9 8 9 10 9 8 4 4 3 4 3 3 2 3 4 8 8 7 6 5 3 2 1 3 5
8 8 9 9 10 10 8 7 7 5 5 8 8 8 9 10 10 8 7 6 4 3 2 3 3 2 2 2 4 6 6 6 5 4 2 2 3 4
5 6 9 10 11 10 9 9 9 8 7 6 6 6 7 8 10 9 9 8 5 3 3 3 3 3 2 1 2 3 4 4 4 3 2 2 3 4
4 5 6 9 10 10 9 8 11 10 8 7 6 5 5 5 5 4 5 6 6 3 5 4 3 3 3 2 1 2 3 3 2 2 1 2 3 3
4 4 4 7 8 8 7 10 12 10 7 7 6 5 6 5 5 5 6 5 5 5 8 6 4 4 4 3 2 1 2 2 2 2 1 2 3 4
3 4 4 6 6 6 9 11 10 8 8 8 7 6 5 6 6 6 8 9 10 8 7 5 5 5 4 4 3 2 1 1 2 2 1 1 1 2
1 1 3 4 4 6 8 8 6 7 8 8 7 6 6 6 7 7 7 7 7 5 6 6 6 6 3 4 5 4 2 2 1 1 1 1 1 1
2 1 2 4 4 5 5 5 6 6 7 7 8 8 7 7 6 6 6 5 5 4 4 5 7 8 6 5 4 4 3 2 2 1 1 1 1 1
1 1 2 4 5 6 6 5 5 6 7 7 8 8 8 8 7 6 6 7 7 6 5 5 6 5 5 6 5 4 3 2 2 1 2 1 1 2
0 2 2 3 4 5 6 6 5 6 7 8 8 8 8 8 8 8 7 8 7 7 6 5 4 5 5 2 3 3 2 3 2 2 1 1 1 2
1 2 2 3 4 5 6 7 6 6 6 7 8 8 8 8 8 8 8 8 8 7 5 4 3 4 4 5 3 1 2 3 3 2 1 1 1 2
1 2 2 4 4 5 6 6 7 6 7 7 8 8 8 8 8 8 8 10 9 7 6 4 3 6 6 6 5 2 2 3 3 2 2 1 1 2
1 2 2 3 4 6 6 6 7 6 7 7 7 7 7 7 9 9 9 8 7 7 6 5 5 4 3 5 6 5 3 3 5 5 3 1 1 1
1 1 2 3 4 5 6 7 7 6 6 6 7 7 7 8 7 8 8 8 8 9 8 7 4 4 5 6 7 5 5 4 3 3 3 4 3 2
Wind_Direction
223 221 224 229 219 209 206 200 206 228 242 237 224 207 188 177 177 180 182 186 188 189 191 191 192 193 191 190 191 198 207 220 244 269 286 298 308 316
222 221 224 227 218 205 203 212 208 212 238 238 239 204 190 183 181 179 182 183 188 190 190 191 190 189 187 186 190 193 202 213 235 263 283 296 309 318
224 223 223 219 215 205 201 208 209 205 227 239 238 196 194 186 177 177 174 178 185 188 190 192 189 187 185 185 188 191 198 208 225 257 282 297 314 325
223 222 222 219 215 207 203 208 210 206 210 217 222 200 195 185 175 175 173 176 179 184 186 189 186 184 185 186 187 189 194 201 217 250 280 305 321 326
221 221 219 213 217 212 205 207 207 206 201 206 213 203 197 182 173 170 168 168 169 177 180 185 186 185 186 186 185 183 184 191 202 221 266 309 320 322
223 220 217 215 215 212 209 206 202 197 194 198 197 195 194 182 172 173 175 169 164 162 171 180 182 183 184 185 180 178 180 186 192 202 237 298 318 322
224 219 220 219 218 217 211 201 195 195 192 191 194 194 193 184 187 180 176 155 147 155 152 165 164 166 175 177 176 176 180 184 187 196 223 299 326 326
223 220 220 217 218 225 220 211 203 199 196 194 201 196 199 193 182 172 165 164 187 166 148 168 159 167 163 166 172 173 177 178 180 185 199 311 330 327
220 219 222 219 216 207 209 208 209 207 203 200 197 202 197 190 179 178 176 177 184 163 144 164 155 162 152 164 169 171 174 174 173 173 167 1 339 335
224 217 213 211 209 198 196 201 204 206 195 193 196 198 194 184 182 178 167 140 108 133 137 149 150 148 137 153 167 167 170 168 164 158 138 35 357 347
226 216 209 206 202 196 192 194 193 190 170 169 172 171 169 172 165 152 154 155 153 159 134 129 134 115 111 139 155 162 165 162 160 153 131 46 11 357
223 213 211 207 199 193 192 188 185 182 167 156 150 148 157 158 165 175 172 168 154 158 164 125 128 122 114 96 137 151 153 157 153 144 110 45 14 18
231 222 210 202 199 199 199 191 183 173 163 157 152 150 151 156 163 157 160 169 162 155 159 137 135 129 126 127 112 137 131 124 125 127 90 28 10 14
247 235 211 197 197 193 186 174 166 162 158 152 152 157 157 157 152 132 113 99 97 130 150 141 140 149 134 127 135 113 107 119 117 115 90 9 10 2
265 238 210 193 189 180 169 165 164 163 160 158 162 165 156 152 139 120 103 94 80 83 107 116 131 140 129 138 143 144 125 124 112 101 70 58 32 14
316 221 187 177 165 157 158 158 163 164 161 159 155 150 143 141 138 135 129 120 100 77 63 82 112 126 124 127 142 149 143 154 149 99 77 37 30 42
288 257 179 166 158 155 153 152 153 152 150 149 149 148 146 142 137 135 133 124 120 126 101 77 78 80 84 113 128 133 130 118 143 135 85 49 357 24
287 187 185 171 164 161 155 151 152 154 153 151 151 151 151 148 141 134 133 131 130 130 128 128 118 98 74 49 50 130 121 125 129 111 99 97 1 347
155 177 173 162 159 159 158 155 154 152 150 152 149 149 146 145 145 144 139 131 130 132 137 145 140 128 125 115 20 32 127 135 126 107 94 110 209 290
94 148 157 152 152 151 149 146 144 145 146 147 145 146 147 148 147 145 144 140 138 135 135 139 140 138 140 144 140 67 59 134 133 126 89 35 341 322
62 104 127 136 137 138 140 141 143 143 143 143 145 146 149 148 145 144 143 141 137 138 144 145 130 115 107 105 104 95 47 62 93 126 129 84 36 13
76 97 108 127 133 137 139 139 135 133 138 142 144 146 148 147 145 144 145 145 142 137 130 126 127 117 106 118 123 124 107 72 64 68 66 109 150 143
71 94 111 125 133 137 138 136 135 137 140 143 144 146 145 141 140 140 140 138 135 132 129 127 115 96 103 119 123 123 119 111 95 75 40 36 58 68
Height
1404 1406 1409 1411 1413 1416 1419 1421 1423 1424 1425 1427 1430 1432 1434 1437 1440 1444 1447 1450 1453 1456 1458 1460 1462 1464 1465 1465 1466 1467 1467 1467 1467 1466 1465 1464 1463 1461
1397 1399 1401 1404 1406 1409 1412 1415 1417 1418 1419 1421 1423 1425 1429 1432 1435 1438 1441 1445 1448 1450 1452 1454 1456 1458 1459 1460 1461 1462 1462 1462 1462 1461 1461 1460 1458 1456
1388 1391 1394 1397 1399 1401 1404 1408 1410 1413 1413 1415 1419 1421 1423 1426 1429 1432 1435 1439 1442 1445 1447 1449 1451 1453 1454 1456 1456 1457 1457 1457 1457 1457 1456 1455 1454 1452
1379 1383 1386 1389 1391 1394 1397 1400 1403 1406 1408 1409 1412 1415 1417 1420 1423 1427 1430 1433 1436 1439 1442 1444 1446 1447 1449 1450 1451 1452 1452 1452 1453 1452 1452 1451 1450 1448
1371 1374 1378 1381 1383 1386 1390 1393 1396 1399 1402 1404 1405 1408 1411 1415 1418 1421 1425 1428 1431 1434 1436 1439 1440 1442 1444 1445 1446 1447 1447 1448 1448 1448 1447 1447 1445 1444
1364 1367 1370 1373 1375 1379 1382 1385 1389 1392 1395 1398 1400 1402 1406 1409 1412 1415 1419 1422 1425 1428 1431 1433 1436 1437 1438 1440 1441 1442 1443 1444 1444 1444 1443 1442 1441 1440
1356 1359 1362 1365 1368 1371 1375 1378 1382 1385 1388 1391 1393 1396 1399 1403 1406 1409 1413 1416 1419 1423 1425 1428 1430 1432 1434 1435 1437 1438 1439 1439 1440 1440 1439 1439 1437 1436
1348 1351 1355 1358 1361 1365 1368 1372 1375 1378 1381 1384 1387 1389 1393 1397 1401 1404 1408 1411 1414 1418 1420 1423 1426 1427 1429 1431 1433 1434 1435 1435 1436 1436 1436 1435 1434 1432
1342 1344 1347 1351 1354 1357 1361 1365 1369 1372 1376 1378 1380 1383 1387 1391 1395 1399 1403 1406 1409 1412 1416 1418 1421 1423 1425 1427 1429 1430 1431 1432 1432 1432 1432 1432 1430 1429
1336 1338 1341 1344 1347 1351 1355 1358 1362 1365 1369 1373 1376 1379 1384 1388 1391 1395 1398 1402 1406 1409 1412 1414 1416 1419 1422 1424 1425 1427 1428 1428 1429 1429 1429 1428 1427 1426
1331 1332 1335 1337 1341 1345 1348 1351 1355 1359 1364 1369 1373 1376 1380 1384 1387 1391 1395 1398 1400 1403 1407 1409 1412 1415 1418 1420 1422 1423 1424 1425 1426 1426 1426 1425 1424 1423
1326 1327 1329 1331 1334 1338 1342 1345 1349 1353 1359 1364 1368 1372 1375 1379 1383 1387 1391 1394 1396 1399 1402 1405 1408 1411 1414 1416 1418 1420 1421 1422 1423 1423 1423 1422 1421 1420
1320 1322 1324 1326 1329 1332 1336 1340 1344 1349 1354 1359 1363 1367 1371 1375 1380 1383 1387 1390 1393 1395 1398 1401 1404 1407 1410 1412 1415 1417 1418 1419 1420 1420 1420 1419 1418 1417
1316 1317 1318 1321 1323 1327 1331 1335 1340 1345 1350 1354 1358 1362 1367 1371 1375 1379 1383 1387 1390 1393 1395 1398 1400 1403 1406 1408 1411 1413 1415 1416 1417 1417 1417 1417 1416 1415
1312 1313 1314 1316 1319 1323 1327 1332 1337 1341 1345 1350 1354 1359 1364 1368 1372 1376 1380 1384 1387 1390 1392 1396 1399 1401 1404 1405 1408 1410 1412 1413 1414 1415 1415 1414 1414 1413
1308 1309 1311 1313 1316 1319 1324 1329 1334 1338 1342 1346 1351 1356 1361 1365 1369 1373 1377 1380 1384 1387 1391 1394 1397 1400 1402 1404 1406 1407 1409 1411 1412 1413 1413 1412 1412 1411
1306 1307 1308 1311 1314 1317 1321 1326 1331 1336 1340 1344 1349 1354 1358 1362 1366 1370 1374 1378 1382 1385 1388 1391 1395 1398 1400 1402 1404 1406 1408 1409 1410 1411 1411 1411 1411 1410
1304 1304 1306 1309 1311 1315 1320 1324 1329 1334 1338 1342 1347 1351 1355 1360 1364 1368 1373 1376 1379 1383 1386 1389 1392 1395 1398 1401 1404 1404 1406 1407 1409 1409 1409 1409 1409 1409
1302 1302 1304 1307 1310 1315 1319 1323 1327 1332 1336 1341 1345 1349 1354 1358 1362 1366 1370 1374 1377 1381 1385 1387 1390 1392 1394 1398 1401 1404 1405 1406 1407 1408 1408 1409 1409 1408
1300 1301 1303 1306 1310 1313 1318 1322 1326 1331 1335 1339 1344 1348 1353 1357 1360 1365 1368 1372 1376 1379 1383 1386 1388 1391 1393 1396 1399 1402 1404 1405 1405 1406 1407 1408 1408 1408
1301 1302 1304 1307 1310 1314 1318 1322 1326 1330 1334 1338 1343 1347 1351 1356 1359 1363 1367 1371 1375 1378 1381 1384 1387 1391 1393 1395 1397 1400 1402 1404 1406 1406 1407 1407 1407 1407
1303 1304 1306 1308 1311 1314 1318 1321 1325 1329 1334 1338 1342 1346 1351 1355 1358 1362 1366 1370 1373 1377 1380 1383 1387 1390 1392 1394 1396 1398 1401 1403 1405 1406 1407 1407 1407 1406
1304 1305 1307 1309 1312 1315 1318 1322 1325 1329 1333 1337 1342 1346 1350 1354 1358 1362 1366 1369 1372 1375 1379 1382 1386 1389 1391 1394 1396 1398 1400 1403 1404 1406 1407 1408 1408 1408